Home   Weather   Debrecen   Past weeks

Flag for Hungary Past Weather in Debrecen, Hungary — Yesterday and Last 2 Weeks

Now
72 °F

Sunny.


Feels Like: 77 °F
Forecast: 56 / 72 °F
Wind: 15 mph from Southwest

Location: Debrecen Airport

Current Time: Apr 27, 2017 at 1:09:39 pm

Latest Report: Apr 27, 2017 at 12:15 pm


Visibility: 10 mi

Pressure: 29.89 "Hg

Humidity: 38%

Dew Point: 45 °F

Location of DebrecenLocation

Past Weather in Debrecen — Graph

°F

Debrecen Temperature Yesterday

Maximum temperature yesterday: 72 °F (at 2:15 pm)
Minimum temperature yesterday: 50 °F (at 5:15 am)
Average temperature yesterday: 63 °F

High & Low Weather Summary for the Past Weeks

 TemperatureHumidityPressure
High72 °F (Apr 26, 2:15 pm)100% (Apr 14, 6:15 am)30.27 "Hg (Apr 14, 6:15 am)
Low30 °F (Apr 24, 5:15 am)27% (Apr 16, 5:15 pm)29.77 "Hg (Apr 13, 4:45 pm)
Average49 °F61%29.98 "Hg
* Reported Apr 12 11:15 am — Apr 27 11:45 am, Debrecen, Weather by CustomWeather, © 2017

Note: Actual official high and low records may vary slightly from our data, if they occured in-between our weather recording intervals... More about our weather records

Advertising

Debrecen Weather History for the Previous 24 Hours

Scroll right to see more
 ConditionsComfort  
Time TempWeatherWind HumidityBarometerVisibility
11:45 am
Thu, Apr 27
70 °FSunny.14 mph38%29.89 "Hg10 mi
11:15 am68 °FSunny.15 mph40%29.89 "Hg10 mi
10:45 am66 °FSunny.13 mph43%29.89 "Hg10 mi
10:15 am66 °FSunny.16 mph43%29.89 "Hg10 mi
9:45 am66 °FSunny.16 mph43%29.89 "Hg10 mi
9:15 am64 °FSunny.17 mph46%29.86 "Hg10 mi
8:45 am61 °FSunny.14 mph55%29.86 "Hg10 mi
8:15 am61 °FSunny.14 mph52%29.86 "Hg10 mi
7:45 am59 °FSunny.12 mph55%29.86 "Hg10 mi
7:15 am57 °FSunny.8 mph59%29.89 "Hg10 mi
6:45 am55 °FSunny.7 mph67%29.86 "Hg10 mi
6:21 am55 °FCool.9 mph63%29.86 "HgN/A
5:45 am55 °FSunny.7 mph63%29.86 "Hg10 mi
5:15 am54 °FClear.8 mph67%29.86 "Hg10 mi
4:45 am55 °FClear.8 mph63%29.86 "Hg10 mi
12:45 am59 °FClear.10 mph55%29.86 "Hg10 mi
12:15 am59 °FClear.10 mph51%29.86 "Hg10 mi
11:45 pm
Wed, Apr 26
59 °FClear.9 mph51%29.86 "Hg10 mi
11:15 pm59 °FClear.9 mph51%29.86 "Hg10 mi
10:45 pm61 °FClear.9 mph45%29.86 "Hg10 mi
10:15 pm59 °FClear.9 mph48%29.86 "Hg10 mi
9:45 pm59 °FClear.7 mph48%29.86 "Hg10 mi
9:15 pm59 °FClear.6 mph48%29.86 "Hg10 mi
8:45 pm61 °FClear.8 mph45%29.86 "Hg10 mi
7:45 pm63 °FClear.7 mph45%29.86 "Hg10 mi
7:15 pm64 °FSunny.8 mph43%29.86 "Hg10 mi
6:45 pm66 °FSunny.8 mph40%29.86 "Hg10 mi
6:15 pm68 °FSunny.9 mph38%29.86 "Hg10 mi
5:45 pm70 °FSunny.14 mph35%29.86 "Hg10 mi
5:15 pm70 °FSunny.14 mph33%29.86 "Hg10 mi
4:45 pm70 °FSunny.17 mph35%29.86 "Hg10 mi
4:15 pm72 °FSunny.17 mph33%29.86 "Hg10 mi
3:45 pm72 °FSunny.17 mph33%29.89 "Hg10 mi
3:15 pm72 °FSunny.17 mph33%29.86 "Hg10 mi
2:45 pm72 °FSunny.17 mph36%29.89 "Hg10 mi
2:15 pm72 °FSunny.17 mph36%29.89 "Hg10 mi
1:45 pm70 °FSunny.20 mph35%29.89 "Hg10 mi
1:15 pm70 °FSunny.20 mph38%29.89 "Hg10 mi
Weather by CustomWeather, © 2017

See weather overviewHow to use our weather pages